Regional Weather Roundup
Issued by NWS

Home | Current Version | Previous Version | Graphics & Text | Print | Product List | Glossary On
Versions: 1 2 3 4 5 6 7 8 9 10 11 12 13 14 15 16 17 18 19 20 21 22 23 24 25 26 27 28 29 30 31 32 33 34 35 36 37 38 39 40 41 42 43 44 45 46 47 48 49 50
346
ASUS43 KLSX 190310
RWRMO

WEATHER SUMMARY FOR MISSOURI
NATIONAL WEATHER SERVICE SPRINGFIELD MO
900 PM CST WED JAN 18 2017

NOTE: "FAIR" INDICATES FEW OR NO CLOUDS BELOW 12,000 FEET WITH NO
       SIGNIFICANT WEATHER AND/OR OBSTRUCTIONS TO VISIBILITY.
       CURRENT SKY AND/OR WEATHER CONDITIONS ARE NOT AVAILABLE FOR
       CHILLICOTHE AND FARMINGTON.

MOZ001>031-035>038-043-044-053-054-190400-
...NORTHERN AND WESTERN MISSOURI...

CITY           SKY/WX    TMP DP  RH WIND       PRES   REMARKS
KANSAS CTY INT CLEAR     38  34  85 SE10      29.96F
KANSAS C DTWN  CLEAR     41  37  86 CALM      29.97F
LEE`S SUMMIT   PTCLDY    41  38  89 SE7       29.98F
ST JOSEPH      CLEAR     36  36 100 S7        29.97F
CHILLICOTHE      N/A     35  34  96 SE3       30.00F
KIRKSVILLE     FOG       31  31 100 SE5       30.01F VSB 1/2 WCI  26

$$
MOZ066>068-077>081-088>096-101>105-190400-
...SOUTHWEST MISSOURI...

CITY           SKY/WX    TMP DP  RH WIND       PRES   REMARKS
SPRINGFIELD    LGT RAIN  43  41  93 SE9       30.00F
JOPLIN         CLOUDY    46  45  96 SE12      29.98F
BRANSON        CLOUDY    41  41 100 SE8       30.02F FOG

$$
MOZ032>034-039>042-045>050-055>058-069>072-190400-
...CENTRAL MISSOURI...

CITY           SKY/WX    TMP DP  RH WIND       PRES   REMARKS
COLUMBIA       CLOUDY    45  35  68 SE7       30.02F
JEFFERSON CITY CLOUDY    47  36  65 E8        30.03F
ROLLA          CLOUDY    44  38  79 SE7       30.02S
SEDALIA        CLOUDY    45  37  73 E3        30.01F
WHITEMAN AFB   MOCLDY    43  41  93 E5        29.98F
WARRENSBURG    CLOUDY    41  36  81 E3        30.00S
OSAGE BEACH    CLOUDY    47  38  71 SE8       30.03F

$$
MOZ051-052-059>065-190400-
...EAST CENTRAL MISSOURI...

CITY           SKY/WX    TMP DP  RH WIND       PRES   REMARKS
ST LOUIS INTL  CLOUDY    44  36  73 SE8       30.07F
SPIRIT OF STL  CLOUDY    43  37  79 CALM      30.08R
ST CHARLES     CLOUDY    39  37  92 E5        30.07F

$$
MOZ072>076-082>087-097>100-106>115-190400-
...SOUTH CENTRAL AND SOUTHEAST MISSOURI...

CITY           SKY/WX    TMP DP  RH WIND       PRES   REMARKS
CAPE GIRARDEAU CLOUDY    43  38  82 E8        30.09F
FARMINGTON     CLOUDY    41  37  86 S5        30.07F
POPLAR BLUFF   CLOUDY    44  41  89 CALM      30.08F
WEST PLAINS    CLOUDY    41  40  96 VRB3      30.05F

$$




USA.gov is the U.S. government's official web portal to all federal, state and local government web resources and services.